Shungnak AP, Shungnak, AK, AK

11:08 PM AKST on November 12, 2019 (GMT -0900)
Shungnak AP, Shungnak, AK

Weather History for PAGH - September, 2019

Change the Weather History Date:

Friday, September 6, 2019

  Actual Average (WUND) Record (WUND)
Temperature  
Mean Temperature 52 °F -  
Max Temperature 54 °F - - (-1)
Min Temperature 50 °F - - (-1)
Degree Days  
Heating Degree Days 13    
Growing Degree Days 2 (Base 50)    
Moisture  
Dew Point 50 °F    
Average Humidity 93    
Maximum Humidity 100    
Minimum Humidity 86    
Precipitation  
Precipitation 0.00 in - - ()
Sea Level Pressure  
Sea Level Pressure 30.01 in    
Wind  
Wind Speed 14 mph (ESE)    
Max Wind Speed 18 mph    
Max Gust Speed 24 mph    
Visibility 10 miles    
Events Rain    
Averages and records for this station are not official NWS values.
T = Trace of Precipitation, MM = Missing Value Source: NWS Daily Summary

Daily Weather History Graph

Daily Weather History Graph

Search for Another Location

Airport or City:

Astronomy

Sep. 06, 2019 Rise Set
Actual Time 7:17 AM AKDT 9:34 PM AKDT
Civil Twilight 6:18 AM AKDT 10:32 PM AKDT
Nautical Twilight 4:55 AM AKDT 11:53 PM AKDT
Astronomical Twilight 2:59 AM AKDT 1:54 AM AKDT
Moon 7:49 PM AKDT (9/6) 10:30 PM AKDT (9/6)
Length of Visible Light 16h 13m
Length of Day
14h 17m
First Quarter, 57% of the Moon is Illuminated
Sep 6
First Quarter
Sep 13
Full
Sep 21
Last Quarter
Sep 28
New
Oct 5
First Quarter

Hourly Weather History & Observations

Time (AKDT) Temp. Dew Point Humidity Pressure Visibility Wind Dir Wind Speed Gust Speed Precip Events Conditions
12:56 AM 50.0 °F 48.0 °F 93% 30.04 in 10.0 mi East 13.8 mph 20.7 mph N/A Rain Light Rain
1:35 AM 50.0 °F 48.2 °F 94% 30.03 in 7.0 mi ESE 16.1 mph 21.9 mph N/A Rain Light Rain
1:56 AM 50.0 °F 48.0 °F 93% 30.04 in 10.0 mi East 13.8 mph - N/A Rain Light Rain
2:56 AM 50.0 °F 48.0 °F 93% 30.03 in 10.0 mi ESE 16.1 mph - N/A Rain Light Rain
4:56 AM 50.0 °F 48.0 °F 93% 30.02 in 10.0 mi ESE 18.4 mph 24.2 mph N/A Rain Light Rain
5:56 AM 50.0 °F 48.0 °F 93% 30.02 in 10.0 mi ESE 17.3 mph 23.0 mph N/A   Overcast
6:56 AM 50.0 °F 48.0 °F 93% 30.01 in 10.0 mi East 15.0 mph 20.7 mph N/A Rain Light Rain
8:56 AM 50.0 °F 48.0 °F 93% 30.02 in 10.0 mi ESE 16.1 mph 21.9 mph N/A   Overcast
9:07 AM 50.0 °F 48.2 °F 94% 30.00 in 10.0 mi ESE 16.1 mph - N/A   Overcast
9:35 AM 50.0 °F 48.2 °F 94% 30.00 in 9.0 mi ESE 12.7 mph - N/A Rain Light Rain
9:43 AM 50.0 °F 48.2 °F 94% 30.00 in 10.0 mi ESE 15.0 mph - N/A Rain Light Rain
9:56 AM 50.0 °F 48.9 °F 96% 30.02 in 10.0 mi ESE 13.8 mph 21.9 mph N/A Rain Light Rain
10:56 AM 51.1 °F 48.9 °F 92% 30.03 in 10.0 mi ESE 13.8 mph - N/A Rain Light Rain
11:27 AM 51.8 °F 48.2 °F 88% 30.01 in 10.0 mi ESE 12.7 mph - N/A Rain Light Rain
11:56 AM 52.0 °F 50.0 °F 93% 30.03 in 8.0 mi ESE 12.7 mph 20.7 mph N/A Rain Light Rain
12:56 PM 52.0 °F 50.0 °F 93% 30.03 in 9.0 mi ESE 12.7 mph - N/A Rain Light Rain
1:13 PM 51.8 °F 51.8 °F 100% 30.01 in 8.0 mi East 12.7 mph - N/A Rain Light Rain
1:56 PM 53.1 °F 51.1 °F 93% 30.03 in 10.0 mi ESE 12.7 mph 19.6 mph N/A Rain Light Rain
2:31 PM 53.6 °F 51.8 °F 94% 30.00 in 9.0 mi ESE 11.5 mph - N/A Rain Light Rain
2:56 PM 53.1 °F 52.0 °F 96% 30.02 in 9.0 mi ESE 11.5 mph - N/A Rain Light Rain
3:53 PM 53.6 °F 51.8 °F 94% 30.00 in 10.0 mi East 10.4 mph - N/A Rain Light Rain
3:56 PM 53.1 °F 52.0 °F 96% 30.02 in 10.0 mi East 11.5 mph - N/A Rain Light Rain
4:11 PM 53.6 °F 51.8 °F 94% 29.99 in 10.0 mi East 9.2 mph - N/A Rain Light Rain
4:56 PM 54.0 °F 53.1 °F 97% 29.99 in 10.0 mi East 12.7 mph - N/A Rain Light Rain
6:26 PM 53.6 °F 51.8 °F 94% 29.98 in 10.0 mi SE 6.9 mph - N/A Rain Light Rain
6:47 PM 53.6 °F 51.8 °F 94% 29.97 in 10.0 mi East 11.5 mph - N/A   Overcast
6:56 PM 54.0 °F 52.0 °F 93% 29.99 in 10.0 mi ESE 10.4 mph - N/A   Overcast
7:56 PM 54.0 °F 51.1 °F 90% 29.98 in 10.0 mi East 10.4 mph - N/A Rain Light Rain
8:56 PM 53.1 °F 50.0 °F 89% 29.97 in 10.0 mi East 10.4 mph - N/A Rain Light Rain
9:56 PM 53.1 °F 48.9 °F 86% 29.97 in 10.0 mi ESE 11.5 mph - N/A Rain Light Rain
10:56 PM 52.0 °F 50.0 °F 93% 29.96 in 10.0 mi ESE 9.2 mph - N/A Rain Light Rain
11:56 PM 51.1 °F 50.0 °F 96% 29.96 in 10.0 mi ESE 8.1 mph - N/A Rain Light Rain